Location: Observatoire de l'Aigle
(47.0607°N, 71.3152°W)
Time: 04:07:43
(UTC-04:00)

Amateur Radio Satellites - All Passes

Search period start: 26 June 2016 03:37
Search period end: 27 June 2016 03:37
Location: Observatoire de l'Aigle, 47.0607°N, 71.3152°W

Satellite Date Start Highest point End Downlink Frequencies (MHz)
Time Altitude Azimuth
AO-7 26 Jun 03:50:16 03:57:54 37° 97° (E) 04:05:29 29.400- 29.500
GONETS M04 26 Jun 03:52:32 03:58:10 18° 54° (NE) 04:03:47
STARS 26 Jun 03:54:21 03:58:41 70° 74° (ENE) 04:03:03 437.465
Cosmos 2499 26 Jun 03:57:08 04:01:16 14° 47° (NE) 04:05:20 435.465 / 435.565
CUBESAT XI-V 26 Jun 04:02:34 04:06:02 21° 62° (ENE) 04:09:30 437.345
MOZHAYETS 4 26 Jun 04:19:07 04:23:31 43° 262° (W) 04:27:58
HORYU 2 26 Jun 04:29:00 04:31:10 13° 89° (E) 04:33:20 437.375
BEESAT 3 26 Jun 04:36:53 04:40:36 39° 315° (NW) 04:44:20 437.485
AIST 1 26 Jun 04:39:28 04:43:45 87° 269° (W) 04:48:01
O/OREOS (USA 219) 26 Jun 04:41:31 04:45:30 30° 305° (NW) 04:49:30 437.305
AO-85 26 Jun 04:41:37 04:44:24 15° 24° (NNE) 04:47:04 145.980
PCSat 26 Jun 04:47:23 04:52:02 28° 319° (NW) 04:56:44 145.827
KKS-1 26 Jun 04:52:08 04:55:11 18° 269° (W) 04:58:14 437.445
Gurwin Techsat 1B 26 Jun 04:53:10 04:56:11 15° 305° (NW) 04:59:11 435.225
BEESAT 2 26 Jun 05:08:57 05:12:36 34° 316° (NW) 05:16:17 435.950
ITAMSAT 1 26 Jun 05:15:11 05:19:12 23° 300° (WNW) 05:23:13 435.822/435.867
AIST 2 26 Jun 05:26:24 05:29:56 28° 116° (ESE) 05:33:30 435.215
STARS 26 Jun 05:33:27 05:35:33 13° 271° (W) 05:37:39 437.465
CUBESAT XI-V 26 Jun 05:38:26 05:43:03 54° 260° (W) 05:47:41 437.345
AO-7 26 Jun 05:42:51 05:51:02 59° 297° (WNW) 05:59:10 29.400- 29.500
GONETS M04 26 Jun 05:48:03 05:56:48 73° 79° (ENE) 06:05:31
Cosmos 2499 26 Jun 05:48:14 05:56:55 53° 73° (ENE) 06:05:09 435.465 / 435.565
STRAND 1 26 Jun 05:49:22 05:53:15 22° 60° (ENE) 05:57:08 437.568
CUTE-I 26 Jun 05:54:59 05:58:21 17° 89° (E) 06:01:42 437.470
HORYU 2 26 Jun 06:03:44 06:08:14 73° 287° (WNW) 06:12:43 437.375
BEESAT 3 26 Jun 06:19:00 06:19:22 10° 336° (NNW) 06:19:44 437.485
AO-85 26 Jun 06:21:25 06:26:01 53° 47° (NE) 06:30:12 145.980
NOAA 18 26 Jun 06:29:26 06:34:29 35° 97° (E) 06:39:30 137.9125
NOAA 15 26 Jun 06:31:43 06:36:45 44° 99° (E) 06:41:45 137.62
PCSat 26 Jun 06:36:13 06:37:23 11° 344° (NNW) 06:38:32 145.827
PRISM 26 Jun 06:48:53 06:50:01 11° 57° (ENE) 06:51:09 437.425
BRITE-PL 26 Jun 06:51:28 06:55:39 66° 102° (ESE) 06:59:46 437.365/2234.400
Cubesat XI-IV 26 Jun 06:58:17 07:03:36 56° 100° (E) 07:08:53 437.490
AIST 2 26 Jun 07:04:26 07:08:19 38° 315° (NW) 07:12:13 435.215
DANDE 26 Jun 07:07:12 07:13:10 22° 82° (E) 07:18:53 436.750
CUSAT 1 26 Jun 07:10:03 07:17:04 38° 92° (E) 07:23:12 437.405
LilacSat-2 26 Jun 07:10:10 07:14:04 81° 103° (ESE) 07:17:57 437.200
DOVE 4 26 Jun 07:16:44 07:20:22 27° 95° (E) 07:24:07 437.250
STRAND 1 26 Jun 07:26:56 07:32:00 60° 259° (WSW) 07:37:08 437.568
CUTE-I 26 Jun 07:33:36 07:39:00 76° 287° (WNW) 07:44:22 437.470
AO-7 26 Jun 07:37:07 07:42:08 18° 320° (NW) 07:47:09 29.400- 29.500
GOMX 1 26 Jun 07:39:37 07:43:48 85° 281° (W) 07:48:04 467.674
Cosmos 2499 26 Jun 07:41:47 07:49:48 40° 275° (W) 07:57:28 435.465 / 435.565
HORYU 2 26 Jun 07:43:12 07:43:59 10° 305° (NW) 07:44:46 437.375
GONETS M04 26 Jun 07:45:52 07:52:49 28° 280° (W) 07:59:47
AO-85 26 Jun 08:02:39 08:06:04 21° 248° (WSW) 08:09:15 145.980
HO-68 26 Jun 08:09:57 08:16:26 35° 95° (E) 08:22:53 435.675
NOAA 18 26 Jun 08:10:03 08:15:10 39° 295° (WNW) 08:20:18 137.9125
NOAA 15 26 Jun 08:11:52 08:16:20 29° 297° (WNW) 08:20:48 137.62
PHONESAT 2.4 26 Jun 08:13:58 08:15:12 12° 158° (SSE) 08:16:24 2401.200-2431.200
PRISM 26 Jun 08:20:29 08:24:40 88° 71° (ENE) 08:28:50 437.425
AAUSAT CUBESAT 2 26 Jun 08:20:36 08:22:50 14° 89° (E) 08:25:03 437.432
BRITE-PL 26 Jun 08:31:32 08:33:39 14° 300° (WNW) 08:35:45 437.365/2234.400
CINEMA 3 26 Jun 08:32:30 08:36:51 50° 100° (E) 08:41:23 145.822/145.860
CANX-2 26 Jun 08:37:46 08:42:02 56° 100° (E) 08:46:14 2200.000
Cubesat XI-IV 26 Jun 08:39:02 08:43:20 25° 299° (WNW) 08:47:36 437.490
DANDE 26 Jun 08:46:43 08:55:11 87° 101° (E) 09:03:04 436.750
LilacSat-2 26 Jun 08:46:49 08:47:48 11° 300° (WNW) 08:48:46 437.200
AIST 2 26 Jun 08:47:04 08:47:57 11° 337° (NNW) 08:48:51 435.215
CUBEBUG 2 26 Jun 08:48:49 08:52:38 26° 94° (E) 08:56:30 437.445
COMPASS 1 26 Jun 08:50:39 08:54:33 35° 97° (E) 08:58:23 437.405
CUSAT 1 26 Jun 08:51:31 08:59:04 51° 287° (WNW) 09:05:30 437.405
DOVE 4 26 Jun 08:54:20 08:58:08 32° 291° (WNW) 09:02:02 437.250
CUTE 1.7 + AOD 2 26 Jun 08:58:19 09:02:38 81° 101° (E) 09:06:55 437.475
ANTELSAT 26 Jun 09:00:09 09:03:06 18° 61° (ENE) 09:06:07 437.575/2403.000
M-CUBED/EXP-1 PRIME 26 Jun 09:01:51 09:04:25 17° 99° (E) 09:07:08 437.505
SEEDS 26 Jun 09:07:25 09:11:41 74° 101° (E) 09:15:55 437.485
CUTE-I 26 Jun 09:15:33 09:18:10 14° 306° (NW) 09:20:48 437.470
GOMX 1 26 Jun 09:21:09 09:21:15 10° 302° (WNW) 09:21:21 467.674
ZACube-1 26 Jun 09:27:15 09:31:13 29° 95° (E) 09:35:12 437.345
BEESAT 3 26 Jun 09:37:47 09:38:43 11° 25° (NNE) 09:39:37 437.485
UWE-3 26 Jun 09:41:40 09:46:10 59° 100° (E) 09:50:44 435.000/436.395/437.385
Oscar 11 26 Jun 09:42:30 09:46:40 42° 98° (E) 09:50:47 145.826/435.025
FUNcube-1 26 Jun 09:46:09 09:50:27 42° 98° (E) 09:54:46 145.935
PHONESAT 2.4 26 Jun 09:48:42 09:51:11 23° 174° (S) 09:53:41 2401.200-2431.200
TIGRISAT 26 Jun 09:51:06 09:55:16 51° 71° (ENE) 09:59:32 435.000
AAUSAT CUBESAT 2 26 Jun 09:54:36 09:58:44 60° 287° (WNW) 10:02:49 437.432
UNISAT 6 26 Jun 09:55:13 09:59:27 60° 72° (ENE) 10:03:48 437.425
HO-68 26 Jun 09:57:27 10:04:25 54° 295° (WNW) 10:11:21 435.675
AUBIESAT-1 26 Jun 09:58:26 10:02:11 58° 107° (ESE) 10:06:13 437.475
PCSat 26 Jun 10:04:54 10:09:09 22° 36° (NE) 10:13:23 145.827
BEESAT 2 26 Jun 10:09:43 10:11:16 12° 27° (NNE) 10:12:50 435.950
CINEMA 3 26 Jun 10:10:26 10:13:42 21° 296° (WNW) 10:17:05 145.822/145.860
CANX-2 26 Jun 10:14:39 10:17:28 17° 298° (WNW) 10:20:17 2200.000
ISS 26 Jun 10:21:48 10:24:58 50° 148° (SSE) 10:28:10 145.825
CUBEBUG 2 26 Jun 10:25:07 10:29:21 39° 290° (WNW) 10:33:40 437.445
COMPASS 1 26 Jun 10:26:32 10:29:57 25° 294° (WNW) 10:33:21 437.405
DELFI C3 26 Jun 10:28:55 10:32:55 61° 101° (E) 10:36:51 145.870
DANDE 26 Jun 10:32:07 10:38:51 26° 298° (WNW) 10:45:09 436.750
ANTELSAT 26 Jun 10:35:14 10:39:26 53° 260° (W) 10:43:45 437.575/2403.000
M-CUBED/EXP-1 PRIME 26 Jun 10:35:34 10:39:08 45° 294° (WNW) 10:42:58 437.505
CUTE 1.7 + AOD 2 26 Jun 10:35:58 10:37:52 13° 301° (WNW) 10:39:45 437.475
BUGSAT 1 26 Jun 10:38:42 10:40:51 14° 61° (ENE) 10:43:00 437.445
CUSAT 1 26 Jun 10:40:18 10:42:25 11° 305° (NW) 10:44:27 437.405
NANOSAT C BR1 26 Jun 10:43:09 10:46:54 33° 68° (ENE) 10:50:42 145.865
QB50P1 26 Jun 10:44:28 10:48:18 36° 69° (ENE) 10:52:10 145.935-145.965
SEEDS 26 Jun 10:44:43 10:46:50 14° 300° (WNW) 10:48:55 437.485
POPSAT HIP 1 26 Jun 10:47:22 10:51:15 38° 69° (ENE) 10:55:09 437.405
RS-15 26 Jun 10:50:01 10:58:24 24° 99° (E) 11:07:02 29.354- 29.394
QB50P2 26 Jun 10:58:44 11:02:50 53° 72° (ENE) 11:06:57 145.880/145.840
POLYITAN 1 26 Jun 11:01:21 11:05:27 55° 72° (ENE) 11:09:34 437.675
ZACube-1 26 Jun 11:03:27 11:07:30 34° 292° (WNW) 11:11:36 437.345
HUMSAT D 26 Jun 11:03:44 11:08:04 69° 101° (ESE) 11:12:22 437.325/437.525
DUCHIFAT 1 26 Jun 11:04:42 11:08:45 52° 71° (ENE) 11:12:49 145.980
YUBILEINY 26 Jun 11:06:06 11:09:05 12° 69° (ENE) 11:12:04 435.215
Cosmos 2491 26 Jun 11:09:22 11:17:28 40° 68° (ENE) 11:25:30 435.465 / 435.565
BEESAT 3 26 Jun 11:13:37 11:17:25 42° 46° (NE) 11:21:11 437.485
UWE-3 26 Jun 11:19:06 11:22:14 19° 298° (WNW) 11:25:23 435.000/436.395/437.385
Oscar 11 26 Jun 11:19:10 11:22:34 23° 296° (WNW) 11:25:58 145.826/435.025
CUBEBUG 1 26 Jun 11:22:39 11:25:02 14° 90° (E) 11:27:24 437.445
FUNcube-1 26 Jun 11:22:52 11:26:29 24° 295° (WNW) 11:30:08 145.935
VELOX 1 26 Jun 11:23:48 11:26:02 14° 89° (E) 11:28:16 145.980
JAS-2 26 Jun 11:24:54 11:31:42 38° 64° (ENE) 11:37:59 435.910
PHONESAT 2.4 26 Jun 11:24:56 11:27:17 20° 191° (SSW) 11:29:40 2401.200-2431.200
Oscar 19 26 Jun 11:25:02 11:26:38 11° 53° (NE) 11:28:14 437.125/150
TIGRISAT 26 Jun 11:29:27 11:32:18 17° 270° (W) 11:35:12 435.000
O/OREOS (USA 219) 26 Jun 11:30:08 11:33:04 17° 47° (NE) 11:35:59 437.305
AUBIESAT-1 26 Jun 11:34:04 11:36:22 16° 302° (WNW) 11:38:45 437.475
UNISAT 6 26 Jun 11:34:09 11:36:37 15° 271° (W) 11:39:07 437.425
BEESAT 2 26 Jun 11:46:08 11:50:03 50° 48° (NE) 11:53:56 435.950
HO-68 26 Jun 11:47:17 11:50:37 14° 317° (NW) 11:53:56 435.675
PCSat 26 Jun 11:47:48 11:53:16 87° 238° (WSW) 11:58:42 145.827
ESTCUBE 1 26 Jun 11:47:51 11:52:04 37° 97° (E) 11:56:14 437.505/2401.250
50 SAT 26 Jun 11:50:57 11:54:06 25° 95° (E) 11:57:13 437.505
ISS 26 Jun 11:58:19 12:01:28 44° 346° (NNW) 12:04:38 145.825
AISAT 26 Jun 12:02:57 12:06:59 35° 97° (E) 12:11:00 437.250
DELFI C3 26 Jun 12:05:06 12:07:18 14° 299° (WNW) 12:09:30 145.870
AIST 2 26 Jun 12:07:09 12:08:58 12° 27° (NNE) 12:10:47 435.215
BUGSAT 1 26 Jun 12:11:47 12:15:46 62° 258° (WSW) 12:19:46 437.445
UKube-1 26 Jun 12:17:33 12:21:21 30° 96° (E) 12:25:08 .
NANOSAT C BR1 26 Jun 12:19:15 12:22:42 25° 266° (W) 12:26:11 145.865
QB50P1 26 Jun 12:20:50 12:24:11 23° 266° (W) 12:27:35 145.935-145.965
POPSAT HIP 1 26 Jun 12:23:54 12:27:10 22° 267° (W) 12:30:28 437.405
SPROUT 26 Jun 12:24:15 12:27:50 26° 94° (E) 12:31:25 437.525
DX 1 26 Jun 12:32:12 12:36:28 51° 100° (E) 12:40:41 434.975-435.025
QB50P2 26 Jun 12:36:23 12:38:58 16° 269° (W) 12:41:35 145.880/145.840
POLYITAN 1 26 Jun 12:39:05 12:41:36 15° 270° (W) 12:44:09 437.675
HUMSAT D 26 Jun 12:40:45 12:43:10 15° 300° (WNW) 12:45:35 437.325/437.525
DUCHIFAT 1 26 Jun 12:42:11 12:44:46 16° 269° (W) 12:47:23 145.980
BEESAT 3 26 Jun 12:51:44 12:54:53 23° 245° (WSW) 12:58:01 437.485
YUBILEINY 26 Jun 12:55:24 13:03:52 60° 91° (E) 13:12:26 435.215
Gurwin Techsat 1B 26 Jun 12:56:52 13:01:29 31° 64° (ENE) 13:06:06 435.225
RS-15 26 Jun 12:57:27 13:08:56 83° 123° (ESE) 13:21:05 29.354- 29.394
CUBEBUG 1 26 Jun 12:57:28 13:01:45 62° 288° (WNW) 13:06:00 437.445
VELOX 1 26 Jun 12:58:36 13:02:59 68° 287° (WNW) 13:07:20 145.980
Oscar 19 26 Jun 12:59:54 13:05:01 66° 71° (ENE) 13:10:07 437.125/150
AO-7 26 Jun 13:03:45 13:09:08 19° 42° (NE) 13:14:33 29.400- 29.500
Cosmos 2491 26 Jun 13:06:13 13:14:34 53° 270° (W) 13:22:52 435.465 / 435.565
O/OREOS (USA 219) 26 Jun 13:08:32 13:13:01 74° 247° (WSW) 13:17:29 437.305
JAS-2 26 Jun 13:09:02 13:16:32 54° 261° (W) 13:23:26 435.910
ITAMSAT 1 26 Jun 13:18:32 13:22:13 20° 58° (ENE) 13:25:55 435.822/435.867
50 SAT 26 Jun 13:24:37 13:27:44 26° 293° (WNW) 13:30:50 437.505
BEESAT 2 26 Jun 13:24:40 13:27:34 19° 247° (WSW) 13:30:27 435.950
ESTCUBE 1 26 Jun 13:24:58 13:28:43 26° 295° (WNW) 13:32:27 437.505/2401.250
PCSat 26 Jun 13:33:05 13:35:51 14° 257° (WSW) 13:38:36 145.827
ISS 26 Jun 13:35:16 13:38:22 37° 7° (N) 13:41:26 145.825
AISAT 26 Jun 13:39:40 13:43:21 27° 295° (WNW) 13:47:02 437.250
AIST 2 26 Jun 13:44:20 13:48:25 50° 48° (NE) 13:52:28 435.215
Cosmos 2504 26 Jun 13:44:58 13:52:21 41° 85° (E) 14:00:13 435.465 / 435.565
UKube-1 26 Jun 13:53:36 13:57:22 30° 294° (WNW) 14:01:08 .
TISAT 1 26 Jun 13:53:39 13:57:49 59° 101° (ESE) 14:01:58 437.305
SPROUT 26 Jun 13:59:58 14:03:50 34° 292° (WNW) 14:07:42 437.525
DX 1 26 Jun 14:09:15 14:12:18 19° 298° (WNW) 14:15:21 434.975-435.025
Gurwin Techsat 1B 26 Jun 14:36:16 14:41:17 42° 262° (W) 14:46:21 435.225
Oscar 19 26 Jun 14:41:21 14:44:49 18° 270° (W) 14:48:17 437.125/150
SWISSCUBE 26 Jun 14:44:29 14:49:04 43° 99° (E) 14:53:37 437.505
AO-7 26 Jun 14:52:12 15:00:24 65° 65° (ENE) 15:08:40 29.400- 29.500
YUBILEINY 26 Jun 14:53:23 15:01:11 35° 294° (WNW) 15:09:06 435.215
ITAMSAT 1 26 Jun 14:55:58 15:01:10 69° 257° (WSW) 15:06:25 435.822/435.867
ITUPSAT 1 26 Jun 15:09:19 15:14:09 65° 103° (ESE) 15:18:54 437.325
BEESAT 26 Jun 15:09:57 15:14:46 68° 103° (ESE) 15:19:31 436.000
RS-15 26 Jun 15:11:43 15:22:47 44° 332° (NNW) 15:34:22 29.354- 29.394
ISS 26 Jun 15:11:46 15:15:02 88° 219° (SW) 15:18:19 145.825
AIST 2 26 Jun 15:23:28 15:26:35 21° 247° (WSW) 15:29:43 435.215
HORYU 2 26 Jun 15:29:36 15:32:43 19° 61° (ENE) 15:35:51 437.375
TISAT 1 26 Jun 15:30:26 15:33:02 16° 299° (WNW) 15:35:38 437.305
Cosmos 2504 26 Jun 15:37:39 15:45:32 51° 288° (WNW) 15:54:00 435.465 / 435.565
MOZHAYETS 4 26 Jun 16:10:54 16:15:11 35° 96° (E) 16:19:25
NOAA 15 26 Jun 16:17:43 16:20:56 17° 56° (NE) 16:24:09 137.62
NOAA 18 26 Jun 16:21:11 16:24:21 16° 54° (NE) 16:27:31 137.9125
SWISSCUBE 26 Jun 16:22:41 16:26:39 26° 297° (WNW) 16:30:36 437.505
BRITE-PL 26 Jun 16:28:47 16:31:39 16° 61° (ENE) 16:34:27 437.365/2234.400
KKS-1 26 Jun 16:38:06 16:42:33 69° 102° (ESE) 16:46:59 437.445
Cubesat XI-IV 26 Jun 16:45:23 16:49:13 20° 58° (ENE) 16:53:04 437.490
AO-7 26 Jun 16:46:24 16:53:42 33° 265° (W) 17:01:04 29.400- 29.500
SO-50 26 Jun 16:47:07 16:51:57 65° 123° (ESE) 16:56:48 436.795
ITUPSAT 1 26 Jun 16:48:13 16:51:29 19° 301° (WNW) 16:54:46 437.325
BEESAT 26 Jun 16:48:51 16:52:03 18° 301° (WNW) 16:55:13 436.000
ISS 26 Jun 16:48:59 16:51:06 16° 224° (SW) 16:53:12 145.825
GONETS M04 26 Jun 17:00:59 17:05:49 16° 73° (ENE) 17:10:37
HORYU 2 26 Jun 17:04:35 17:08:54 54° 259° (W) 17:13:18 437.375
AIST 1 26 Jun 17:11:40 17:15:48 46° 93° (E) 17:19:55
GOMX 1 26 Jun 17:14:24 17:17:25 18° 63° (ENE) 17:20:22 467.674
STARS 26 Jun 17:16:48 17:21:14 89° 111° (ESE) 17:25:38 437.465
CUTE-I 26 Jun 17:19:12 17:24:04 37° 65° (ENE) 17:28:57 437.470
RS-15 26 Jun 17:28:37 17:39:16 34° 6° (N) 17:50:11 29.354- 29.394
CUBESAT XI-V 26 Jun 17:32:06 17:36:12 30° 95° (E) 17:40:15 437.345
Cosmos 2504 26 Jun 17:38:08 17:41:33 13° 314° (NW) 17:45:02 435.465 / 435.565
CUSAT 1 26 Jun 17:44:05 17:46:52 17° 60° (ENE) 17:49:14 437.405
DANDE 26 Jun 17:45:06 17:47:25 12° 50° (NE) 17:49:31 436.750
MOZHAYETS 4 26 Jun 17:48:15 17:52:16 29° 294° (WNW) 17:56:15
NOAA 15 26 Jun 17:54:43 18:00:01 87° 256° (WSW) 18:05:21 137.62
LilacSat-2 26 Jun 17:54:50 17:58:33 59° 74° (ENE) 18:02:19 437.200
NOAA 18 26 Jun 17:58:44 18:04:13 85° 72° (ENE) 18:09:44 137.9125
BRITE-PL 26 Jun 18:04:34 18:09:41 78° 256° (WSW) 18:14:25 437.365/2234.400
KKS-1 26 Jun 18:15:58 18:18:36 16° 301° (WNW) 18:21:14 437.445
CUTE 1.7 + AOD 2 26 Jun 18:21:38 18:22:39 11° 57° (ENE) 18:23:38 437.475
Cubesat XI-IV 26 Jun 18:23:26 18:28:46 70° 257° (WSW) 18:34:09 437.490
DOVE 4 26 Jun 18:25:15 18:29:15 37° 70° (ENE) 18:33:08 437.250
Cosmos 2499 26 Jun 18:28:06 18:35:35 39° 84° (E) 18:43:28 435.465 / 435.565
SO-50 26 Jun 18:28:42 18:32:51 27° 323° (NW) 18:36:58 436.795
HO-68 26 Jun 18:41:53 18:48:16 37° 59° (ENE) 18:54:42 435.675
AIST 1 26 Jun 18:50:34 18:53:39 19° 292° (WNW) 18:56:45
GOMX 1 26 Jun 18:50:37 18:55:13 57° 260° (W) 18:59:32 467.674
GONETS M04 26 Jun 18:52:23 19:01:03 75° 94° (E) 19:09:43
STARS 26 Jun 18:55:07 18:56:56 12° 303° (WNW) 18:58:45 437.465
CUTE-I 26 Jun 18:59:14 19:04:06 35° 264° (W) 19:09:01 437.470
CUBESAT XI-V 26 Jun 19:09:26 19:13:36 33° 293° (WNW) 19:17:43 437.345
AAUSAT CUBESAT 2 26 Jun 19:13:58 19:16:25 15° 61° (ENE) 19:18:53 437.432
AUBIESAT-1 26 Jun 19:16:17 19:17:18 11° 55° (NE) 19:18:18 437.475
CUSAT 1 26 Jun 19:25:34 19:29:20 34° 269° (W) 19:32:19 437.405
DANDE 26 Jun 19:26:05 19:31:47 81° 77° (ENE) 19:35:56 436.750
LilacSat-2 26 Jun 19:31:48 19:33:16 12° 271° (W) 19:34:44 437.200
CANX-2 26 Jun 19:33:06 19:37:18 58° 72° (ENE) 19:41:32 2200.000
STRAND 1 26 Jun 19:34:24 19:39:12 37° 97° (E) 19:43:56 437.568
CINEMA 3 26 Jun 19:37:18 19:41:24 62° 74° (ENE) 19:45:32 145.822/145.860
NOAA 15 26 Jun 19:38:18 19:40:35 13° 273° (W) 19:42:51 137.62
NOAA 18 26 Jun 19:42:31 19:45:35 15° 272° (W) 19:48:40 137.9125
RS-15 26 Jun 19:43:11 19:55:13 55° 38° (NE) 20:07:16 29.354- 29.394
COMPASS 1 26 Jun 19:44:07 19:47:57 35° 69° (ENE) 19:51:49 437.405
CUBEBUG 2 26 Jun 19:50:09 19:53:43 28° 66° (ENE) 19:57:21 437.445
M-CUBED/EXP-1 PRIME 26 Jun 19:51:27 19:54:23 31° 64° (ENE) 19:57:19 437.505
CUTE 1.7 + AOD 2 26 Jun 19:53:28 19:57:45 83° 73° (ENE) 20:02:05 437.475
SEEDS 26 Jun 20:01:37 20:05:51 74° 74° (ENE) 20:10:08 437.485
DOVE 4 26 Jun 20:03:42 20:07:06 22° 266° (W) 20:10:26 437.250
SO-50 26 Jun 20:13:43 20:15:00 11° 347° (NNW) 20:16:15 436.795
Cosmos 2499 26 Jun 20:20:17 20:28:25 55° 287° (WNW) 20:37:04 435.465 / 435.565
ZACube-1 26 Jun 20:26:05 20:29:48 31° 67° (ENE) 20:33:36 437.345
HO-68 26 Jun 20:28:49 20:35:46 53° 259° (W) 20:42:48 435.675
Oscar 11 26 Jun 20:39:52 20:44:02 47° 70° (ENE) 20:48:14 145.826/435.025
UWE-3 26 Jun 20:41:34 20:45:42 65° 73° (ENE) 20:49:58 435.000/436.395/437.385
FUNcube-1 26 Jun 20:44:33 20:48:33 44° 70° (ENE) 20:52:40 145.935
AAUSAT CUBESAT 2 26 Jun 20:47:16 20:51:26 63° 259° (W) 20:55:38 437.432
AUBIESAT-1 26 Jun 20:48:06 20:51:22 60° 253° (WSW) 20:54:40 437.475
GONETS M04 26 Jun 20:51:32 20:58:46 28° 298° (WNW) 21:06:04
CANX-2 26 Jun 21:10:59 21:13:32 15° 271° (W) 21:16:06 2200.000
DANDE 26 Jun 21:11:30 21:13:12 12° 285° (WNW) 21:14:47 436.750
STRAND 1 26 Jun 21:13:43 21:18:18 33° 295° (WNW) 21:22:52 437.568
CINEMA 3 26 Jun 21:17:04 21:19:01 13° 271° (W) 21:20:59 145.822/145.860
DELFI C3 26 Jun 21:17:23 21:21:19 53° 73° (ENE) 21:25:16 145.870
COMPASS 1 26 Jun 21:20:09 21:23:36 24° 267° (W) 21:27:04 437.405
CUBEBUG 2 26 Jun 21:26:38 21:30:17 30° 265° (W) 21:34:03 437.445
M-CUBED/EXP-1 PRIME 26 Jun 21:26:56 21:29:06 16° 261° (W) 21:31:15 437.505
CUTE 1.7 + AOD 2 26 Jun 21:33:12 21:34:11 11° 273° (W) 21:35:10 437.475
PRISM 26 Jun 21:34:15 21:38:23 87° 279° (W) 21:42:26 437.425
SEEDS 26 Jun 21:40:28 21:42:05 12° 272° (W) 21:43:42 437.485
UNISAT 6 26 Jun 21:46:00 21:47:19 11° 87° (E) 21:48:37 437.425
RS-15 26 Jun 21:56:09 22:08:10 62° 244° (WSW) 22:20:06 29.354- 29.394
SO-50 26 Jun 21:56:39 21:57:43 11° 12° (NNE) 21:58:46 436.795
HUMSAT D 26 Jun 21:57:36 22:01:45 69° 73° (ENE) 22:05:58 437.325/437.525
ZACube-1 26 Jun 22:02:30 22:06:06 27° 266° (W) 22:09:48 437.345
Oscar 11 26 Jun 22:17:17 22:20:25 19° 269° (W) 22:23:35 145.826/435.025
AO-85 26 Jun 22:17:20 22:22:41 62° 122° (ESE) 22:27:49 145.980
Cosmos 2499 26 Jun 22:19:53 22:24:00 14° 312° (NW) 22:28:14 435.465 / 435.565
UWE-3 26 Jun 22:20:41 22:22:40 13° 272° (W) 22:24:41 435.000/436.395/437.385
CUBEBUG 1 26 Jun 22:21:23 22:24:26 19° 62° (ENE) 22:27:30 437.445
FUNcube-1 26 Jun 22:22:02 22:25:03 19° 269° (W) 22:28:08 145.935
VELOX 1 26 Jun 22:23:44 22:26:52 19° 62° (ENE) 22:29:59 145.980
ANTELSAT 26 Jun 22:23:48 22:27:42 26° 94° (E) 22:31:37 437.575/2403.000
50 SAT 26 Jun 22:32:03 22:34:49 20° 65° (ENE) 22:37:35 437.505
ESTCUBE 1 26 Jun 22:49:58 22:54:22 50° 70° (ENE) 22:58:46 437.505/2401.250
DELFI C3 26 Jun 22:54:08 22:56:30 15° 270° (W) 22:58:53 145.870
YUBILEINY 26 Jun 23:01:41 23:09:40 36° 66° (ENE) 23:17:35 435.215
AISAT 26 Jun 23:02:59 23:07:11 45° 70° (ENE) 23:11:24 437.250
PRISM 26 Jun 23:12:12 23:13:00 10° 303° (WNW) 23:13:48 437.425
UKube-1 26 Jun 23:14:45 23:18:44 37° 68° (ENE) 23:22:44 .
TIGRISAT 26 Jun 23:15:36 23:20:14 78° 104° (ESE) 23:24:55 435.000
UNISAT 6 26 Jun 23:20:01 23:24:40 89° 109° (ESE) 23:29:22 437.425
SPROUT 26 Jun 23:20:40 23:24:20 29° 67° (ENE) 23:28:01 437.525
DX 1 26 Jun 23:30:19 23:34:38 66° 73° (ENE) 23:38:58 434.975-435.025
Cosmos 2504 26 Jun 23:33:34 23:39:53 21° 56° (NE) 23:46:04 435.465 / 435.565
SO-50 26 Jun 23:35:54 23:39:53 26° 36° (NE) 23:43:45 436.795
HUMSAT D 26 Jun 23:36:05 23:37:52 12° 272° (W) 23:39:40 437.325/437.525
BUGSAT 1 26 Jun 23:51:36 23:53:56 15° 91° (E) 23:56:16 437.445
CUBEBUG 1 26 Jun 23:56:07 00:00:23 52° 260° (W) 00:04:38 437.445
VELOX 1 26 Jun 23:58:40 00:02:58 52° 260° (W) 00:07:18 145.980
AO-85 26 Jun 23:58:48 00:03:31 30° 321° (NW) 00:08:02 145.980
NANOSAT C BR1 26 Jun 23:59:40 00:03:41 40° 98° (E) 00:07:41 145.865
ANTELSAT 27 Jun 00:00:12 00:04:30 39° 291° (WNW) 00:08:51 437.575/2403.000
QB50P1 27 Jun 00:01:24 00:05:29 44° 99° (E) 00:09:34 145.935-145.965
POPSAT HIP 1 27 Jun 00:04:23 00:08:31 46° 99° (E) 00:12:38 437.405
50 SAT 27 Jun 00:04:52 00:08:17 34° 263° (W) 00:11:45 437.505
RS-15 27 Jun 00:11:48 00:17:56 16° 267° (W) 00:24:04 29.354- 29.394
Cosmos 2491 27 Jun 00:14:40 00:22:36 41° 86° (E) 00:30:32 435.465 / 435.565
QB50P2 27 Jun 00:16:07 00:20:22 67° 102° (ESE) 00:24:37 145.880/145.840
JAS-2 27 Jun 00:17:24 00:21:11 18° 87° (E) 00:24:45 435.910
POLYITAN 1 27 Jun 00:18:43 00:23:00 69° 102° (ESE) 00:27:16 437.675
SWISSCUBE 27 Jun 00:20:15 00:21:28 11° 54° (NE) 00:22:41 437.505
DUCHIFAT 1 27 Jun 00:21:08 00:25:22 64° 102° (ESE) 00:29:34 145.980
ESTCUBE 1 27 Jun 00:28:09 00:31:27 20° 268° (W) 00:34:46 437.505/2401.250
AISAT 27 Jun 00:40:37 00:43:54 20° 268° (W) 00:47:11 437.250
ITUPSAT 1 27 Jun 00:43:35 00:46:26 16° 58° (ENE) 00:49:17 437.325
BEESAT 27 Jun 00:43:51 00:46:43 16° 58° (ENE) 00:49:38 436.000
TISAT 1 27 Jun 00:47:56 00:52:03 64° 73° (ENE) 00:56:11 437.305
UKube-1 27 Jun 00:51:23 00:54:53 24° 266° (W) 00:58:23 .
TIGRISAT 27 Jun 00:53:44 00:56:21 15° 301° (WNW) 00:58:59 435.000
SPROUT 27 Jun 00:56:31 01:00:14 30° 264° (W) 01:04:00 437.525
YUBILEINY 27 Jun 00:58:20 01:06:58 61° 269° (W) 01:15:35 435.215
UNISAT 6 27 Jun 00:58:32 01:00:43 13° 302° (WNW) 01:02:55 437.425
DX 1 27 Jun 01:09:01 01:11:17 14° 270° (W) 01:13:33 434.975-435.025
Oscar 19 27 Jun 01:09:20 01:12:50 18° 90° (E) 01:16:18 437.125/150
SO-50 27 Jun 01:16:06 01:20:45 62° 237° (WSW) 01:25:14 436.795
BUGSAT 1 27 Jun 01:25:39 01:29:39 55° 288° (WNW) 01:33:40 437.445
Cosmos 2504 27 Jun 01:25:56 01:34:55 78° 79° (E) 01:43:36 435.465 / 435.565
NANOSAT C BR1 27 Jun 01:35:54 01:39:12 22° 296° (WNW) 01:42:30 145.865
QB50P1 27 Jun 01:37:49 01:41:00 21° 296° (WNW) 01:44:11 145.935-145.965
POPSAT HIP 1 27 Jun 01:40:55 01:44:00 20° 297° (WNW) 01:47:06 437.405
AO-85 27 Jun 01:43:38 01:45:35 12° 344° (NNW) 01:47:30 145.980
QB50P2 27 Jun 01:53:17 01:55:41 15° 300° (WNW) 01:58:05 145.880/145.840
SWISSCUBE 27 Jun 01:53:37 01:58:23 69° 73° (ENE) 02:03:11 437.505
POLYITAN 1 27 Jun 01:55:55 01:58:17 15° 300° (WNW) 02:00:40 437.675
DUCHIFAT 1 27 Jun 01:58:08 02:00:35 15° 299° (WNW) 02:03:03 145.980
JAS-2 27 Jun 02:01:13 02:07:04 70° 289° (WNW) 02:12:22 435.910
KKS-1 27 Jun 02:05:32 02:07:21 12° 57° (ENE) 02:09:10 437.445
Cosmos 2491 27 Jun 02:10:47 02:19:16 52° 287° (WNW) 02:27:46 435.465 / 435.565
ITUPSAT 1 27 Jun 02:18:51 02:23:39 79° 256° (WSW) 02:28:30 437.325
BEESAT 27 Jun 02:19:09 02:23:56 77° 257° (WSW) 02:28:46 436.000
TISAT 1 27 Jun 02:26:08 02:28:08 13° 271° (W) 02:30:09 437.305
PCSat 27 Jun 02:32:19 02:37:28 47° 115° (ESE) 02:42:40 145.827
STARS 27 Jun 02:42:15 02:44:41 15° 59° (ENE) 02:47:05 437.465
BEESAT 3 27 Jun 02:44:42 02:47:58 26° 116° (ESE) 02:51:16 437.485
Oscar 19 27 Jun 02:47:32 02:52:37 65° 288° (WNW) 02:57:41 437.125/150
Gurwin Techsat 1B 27 Jun 02:48:53 02:54:11 62° 101° (ESE) 02:59:27 435.225
AO-7 27 Jun 02:52:18 02:56:59 16° 86° (E) 03:01:38 29.400- 29.500
YUBILEINY 27 Jun 02:58:35 03:01:47 12° 291° (WNW) 03:05:00 435.215
ITAMSAT 1 27 Jun 03:05:56 03:10:40 33° 96° (E) 03:15:22 435.822/435.867
GONETS M04 27 Jun 03:06:21 03:07:20 10° 43° (NE) 03:08:20
MOZHAYETS 4 27 Jun 03:15:25 03:19:50 47° 70° (ENE) 03:24:18
AIST 1 27 Jun 03:16:15 03:19:00 16° 67° (ENE) 03:21:43
BEESAT 2 27 Jun 03:18:27 03:21:59 32° 118° (ESE) 03:25:34 435.950
Cosmos 2504 27 Jun 03:20:25 03:27:24 27° 281° (W) 03:34:14 435.465 / 435.565
O/OREOS (USA 219) 27 Jun 03:23:31 03:28:00 72° 113° (ESE) 03:32:29 437.305
AO-85 27 Jun 03:27:41 03:28:22 10° 9° (N) 03:29:01 145.980
